2017-008AL

Last updated on Wed Mar 01 2017 00:15:03 GMT+0000 (Coordinated Universal Time)

1 41982U 17008AL 17059.75162337 .00001644 00000-0 75930-4 0 9999 2 41982 97.5118 121.3656 0007877 209.6997 150.3794 15.21628263 984
UTC large
Height (km)
Speed (km/s)
/
Latitude / Longitude
Inclination (degrees)
Orbital Period (minutes)
Azimuth
Elevation
Range (km)
Doppler Factor

Next 0 passes for location: London (51.5072 / 0.1276)

Sorry there are no passes over London.